Starlink 2445

decayed
NORAD ID: 48109 Int'l Des: 2021-027 Owner: SPXS Country: US Constellation: starlink
LEOCIRCULAR
Gruppe

Über Starlink 2445

Beschreibung wird geladen...

Höhenverlauf

Altitude vs Time

uPlot chart will show altitude changes over time

Zweizeiliger Elementsatz

1 48109U 21027T 24086.96888912 .22945485 12092-4 40039-2 0 9990
2 48109 53.0251 60.8242 0003818 144.5779 319.9122 16.32071920165571
Epoch: 26. März 2024 • Age: 15176 hours

Aktueller Status

Position data unavailable
Startdatum 7. Apr. 2021
Alter 4.6 years
Verglühungsdatum 27. März 2024
Typ internet

Technische Details

Klassifizierung Payload
Masse 260.00 kg
Trockenmasse 248.00 kg
Gesamtmasse 260.00 kg
Länge 0.20 m
Durchmesser 2.80 m
Spannweite 9.00 m
Form Box + pan
Hersteller SPXS
Bus-Typ Starlink
Phasenstatus Unknown Transfer Status
Besitzer/Staat SPXS/US

Große Konstellationen

Loading constellations...